This is the latest recevied weather packets stored in our database for station/object IZ5TJI-3. If no packets are shown the sender has not sent any weather packets the latest 10 day(s).
| Time | Temp. | Humidity | Pressure | Rain* | Wind** | Luminosity | Snow |
|---|---|---|---|---|---|---|---|
| 1777884318 | 17.78° C | 56% | 1018 hPa | 0 mm | - | - | - |
| 1777883418 | 16.67° C | 60% | 1018 hPa | 0 mm | - | - | - |
| 1777882518 | 16.11° C | 62% | 1018 hPa | 0 mm | - | - | - |
| 1777881618 | 15.56° C | 65% | 1018.1 hPa | 0 mm | - | - | - |
| 1777880718 | 15° C | 67% | 1018.3 hPa | 0 mm | - | - | - |
| 1777879818 | 13.89° C | 69% | 1018.3 hPa | 0 mm | - | - | - |
| 1777878918 | 13.33° C | 73% | 1018.4 hPa | 0 mm | - | - | - |
| 1777878018 | 12.78° C | 75% | 1018.4 hPa | 0 mm | - | - | - |
| 1777877118 | 11.67° C | 80% | 1018.5 hPa | 0 mm | - | - | - |
| 1777876218 | 10° C | 84% | 1018.3 hPa | 0 mm | - | - | - |
| 1777875318 | 10° C | 85% | 1018.3 hPa | 0 mm | - | - | - |
| 1777874418 | 8.89° C | 86% | 1018.2 hPa | 0 mm | - | - | - |
| 1777873518 | 8.89° C | 86% | 1018.2 hPa | 0 mm | - | - | - |
| 1777872618 | 8.33° C | 86% | 1018.3 hPa | 0 mm | - | - | - |
| 1777871718 | 7.78° C | 87% | 1018.1 hPa | 0 mm | - | - | - |
| 1777870819 | 7.78° C | 87% | 1018.1 hPa | 0 mm | - | - | - |
| 1777869919 | 7.22° C | 87% | 1017.8 hPa | 0 mm | - | - | - |
| 1777869019 | 6.67° C | 86% | 1017.6 hPa | 0 mm | - | - | - |
| 1777868119 | 6.67° C | 86% | 1017.4 hPa | 0 mm | - | - | - |
| 1777867219 | 7.22° C | 86% | 1017.3 hPa | 0 mm | - | - | - |
| 1777866319 | 7.22° C | 85% | 1017.4 hPa | 0 mm | - | - | - |
| 1777865419 | 6.67° C | 85% | 1017.2 hPa | 0 mm | - | - | - |
| 1777864519 | 7.22° C | 84% | 1017.3 hPa | 0 mm | - | - | - |
| 1777863619 | 7.78° C | 84% | 1017.3 hPa | 0 mm | - | - | - |
| 1777862719 | 7.78° C | 84% | 1017.3 hPa | 0 mm | - | - | - |
* Rain latest hour (hover to see other rain measurements)
** Current wind speed in m/s (hover to see current wind gust speed)